St. Cloud, MN

8:09 PM CST on December 06, 2019 (GMT -0600)
Saint Cloud Regional

Weather History for KSTC - May, 2019

Change the Weather History Date:

Tuesday, May 21, 2019

  Actual Average Record
Temperature  
Mean Temperature 52 °F 58 °F  
Max Temperature 62 °F 70 °F 95 °F (1964)
Min Temperature 42 °F 46 °F 30 °F (1979)
Degree Days  
Heating Degree Days 13 8  
Month to date heating degree days 331 222  
Since 1 July heating degree days 9129 8389  
Cooling Degree Days 0 1  
Month to date cooling degree days 0 13  
Year to date cooling degree days 0 15  
Growing Degree Days 2 (Base 50)    
Moisture  
Dew Point 39 °F    
Average Humidity 66    
Maximum Humidity 96    
Minimum Humidity 36    
Precipitation  
Precipitation 0.74 in 0.09 in 2.00 in (1916)
Month to date precipitation 5.10 1.96  
Year to date precipitation 12.45 7.32  
Snow  
Snow 0.00 in 0.00 in 0.00 in ()
Month to date snowfall 0.4 0.0  
Since 1 July snowfall 68.9 45.7  
Snow Depth 0.00 in    
Sea Level Pressure  
Sea Level Pressure 29.99 in    
Wind  
Wind Speed 9 mph ()    
Max Wind Speed 26 mph    
Max Gust Speed 44 mph    
Visibility 8.8 miles    
Events Rain    
T = Trace of Precipitation, MM = Missing Value Source: Averaged Metar Reports

Daily Weather History Graph

Daily Weather History Graph

Search for Another Location

Airport or City:

Astronomy

May. 21, 2019 Rise Set
Actual Time 5:39 AM CDT 8:46 PM CDT
Civil Twilight 5:03 AM CDT 9:22 PM CDT
Nautical Twilight 4:18 AM CDT 10:08 PM CDT
Astronomical Twilight 3:22 AM CDT 11:04 PM CDT
Moon 11:45 PM CDT (5/21) 7:53 AM CDT (5/21)
Length of Visible Light 16h 18m
Length of Day
15h 07m
Waning Gibbous, 91% of the Moon is Illuminated
May 21
Waning Gibbous
May 26
Last Quarter
Jun 3
New
Jun 10
First Quarter
Jun 17
Full

Hourly Weather History & Observations

Time (CDT) Temp. Windchill Dew Point Humidity Pressure Visibility Wind Dir Wind Speed Gust Speed Precip Events Conditions
12:53 AM 43.0 °F 40.3 °F 41.0 °F 93% 30.15 in 10.0 mi ENE 4.6 mph - N/A   Clear
1:53 AM 42.1 °F 40.2 °F 39.9 °F 92% 30.15 in 10.0 mi ENE 3.5 mph - N/A   Clear
2:53 AM 43.0 °F 40.3 °F 39.9 °F 89% 30.13 in 10.0 mi ENE 4.6 mph - N/A   Clear
3:53 AM 45.0 °F 42.6 °F 39.0 °F 80% 30.13 in 10.0 mi ENE 4.6 mph - N/A   Clear
4:53 AM 46.9 °F - 37.9 °F 71% 30.13 in 10.0 mi ENE 6.9 mph - N/A   Clear
5:53 AM 46.9 °F - 37.0 °F 68% 30.13 in 10.0 mi ENE 4.6 mph - N/A   Clear
6:53 AM 48.0 °F - 37.0 °F 66% 30.13 in 10.0 mi ENE 8.1 mph - N/A   Clear
7:53 AM 48.9 °F - 37.0 °F 64% 30.11 in 10.0 mi East 8.1 mph - N/A   Clear
8:53 AM 52.0 °F - 37.0 °F 57% 30.12 in 10.0 mi East 9.2 mph - N/A   Clear
9:53 AM 55.9 °F - 37.0 °F 49% 30.10 in 10.0 mi East 11.5 mph 18.4 mph N/A   Clear
10:53 AM 59.0 °F - 36.0 °F 42% 30.08 in 10.0 mi East 12.7 mph 24.2 mph N/A   Clear
11:53 AM 59.0 °F - 35.1 °F 41% 30.07 in 10.0 mi ESE 13.8 mph 26.5 mph N/A   Clear
12:53 PM 59.0 °F - 37.0 °F 44% 30.06 in 10.0 mi ESE 12.7 mph 24.2 mph N/A   Clear
1:53 PM 60.1 °F - 36.0 °F 41% 30.04 in 10.0 mi East 13.8 mph 25.3 mph N/A   Clear
2:53 PM 61.0 °F - 36.0 °F 39% 30.00 in 10.0 mi East 16.1 mph 25.3 mph N/A   Clear
3:53 PM 61.0 °F - 34.0 °F 36% 29.96 in 10.0 mi East 15.0 mph 29.9 mph N/A   Clear
4:53 PM 61.0 °F - 34.0 °F 36% 29.92 in 10.0 mi East 16.1 mph 32.2 mph N/A   Clear
5:53 PM 60.1 °F - 34.0 °F 38% 29.88 in 10.0 mi East 13.8 mph 28.8 mph N/A   Overcast
6:53 PM 55.9 °F - 39.0 °F 53% 29.86 in 10.0 mi East 15.0 mph 31.1 mph 0.00 in Rain Light Rain
7:53 PM 50.0 °F - 43.0 °F 77% 29.90 in 10.0 mi ESE 13.8 mph 25.3 mph 0.04 in Rain Light Rain
8:53 PM 48.0 °F - 45.0 °F 89% 29.87 in 8.0 mi East 11.5 mph - 0.08 in Rain Light Rain
9:53 PM 46.9 °F - 44.1 °F 90% 29.86 in 4.0 mi East 12.7 mph 24.2 mph 0.13 in Rain Rain
10:32 PM 46.0 °F 37.6 °F 43.0 °F 89% 29.75 in 6.0 mi ENE 24.2 mph 42.6 mph 0.10 in Rain Rain
10:53 PM 46.0 °F 38.3 °F 43.0 °F 89% 29.76 in 5.0 mi ENE 20.7 mph 39.1 mph 0.17 in Rain Rain
11:05 PM 46.0 °F 38.8 °F 43.0 °F 89% 29.75 in 4.0 mi East 18.4 mph 42.6 mph 0.05 in Rain Rain
11:53 PM 46.0 °F 39.3 °F 43.0 °F 89% 29.79 in 3.0 mi East 16.1 mph 27.6 mph 0.21 in Rain Rain